Auburn, AL

11:22 PM CST on November 18, 2017 (GMT -0600)
Auburn-opelika-pitts

Weather History for KAUO - November, 2012

Change the Weather History Date:

Sunday, November 11, 2012

  Actual Average Record
Temperature  
Mean Temperature 61 °F -  
Max Temperature 73 °F - 80 °F (1980)
Min Temperature 48 °F - 29 °F (1971)
Degree Days  
Heating Degree Days 4    
Month to date heating degree days 93  
Since 1 July heating degree days 160  
Growing Degree Days 10 (Base 50)    
Moisture  
Dew Point 44 °F    
Average Humidity 54    
Maximum Humidity 82    
Minimum Humidity 38    
Precipitation  
Precipitation 0.00 in - 3.25 in (2002)
Month to date precipitation 0.39  
Year to date precipitation 22.52  
Sea Level Pressure  
Sea Level Pressure 30.29 in    
Wind  
Wind Speed 7 mph (SE)    
Max Wind Speed 16 mph    
Max Gust Speed 22 mph    
Visibility 10 miles    
Events      
T = Trace of Precipitation, MM = Missing Value Source: NWS Daily Summary

Daily Weather History Graph

Daily Weather History Graph

Search for Another Location

Airport or City:

Trip Planner

Search our weather history database for the weather conditions in past years. The results will help you decide how hot, cold, wet, or windy it might be!

Date:

Astronomy

Nov. 11, 2012 Rise Set
Actual Time 6:08 AM CST 4:42 PM CST
Civil Twilight 5:42 AM CST 5:08 PM CST
Nautical Twilight 5:12 AM CST 5:38 PM CST
Astronomical Twilight 4:43 AM CST 6:07 PM CST
Moon 3:28 AM CST (11/11) 3:00 PM CST (11/11)
Length of Visible Light 11h 26m
Length of Day
10h 34m
Waning Crescent, 7% of the Moon is Illuminated
Nov 11
Waning Crescent
Nov 13
New
Nov 20
First Quarter
Nov 28
Full
Dec 6
Last Quarter

Hourly Weather History & Observations

Time (CST) Temp. Dew Point Humidity Pressure Visibility Wind Dir Wind Speed Gust Speed Precip Events Conditions
12:15 AM 51.8 °F 33.8 °F 50% 30.29 in 10.0 mi ESE 6.9 mph - N/A   Clear
12:35 AM 51.8 °F 33.8 °F 50% 30.28 in 10.0 mi ESE 5.8 mph - N/A   Clear
12:55 AM 53.6 °F 32.0 °F 44% 30.29 in 10.0 mi ESE 5.8 mph - N/A   Clear
1:15 AM 53.6 °F 33.8 °F 47% 30.29 in 10.0 mi ESE 4.6 mph - N/A   Clear
1:35 AM 48.2 °F 33.8 °F 58% 30.29 in 10.0 mi ESE 4.6 mph - N/A   Clear
1:55 AM 48.2 °F 33.8 °F 58% 30.28 in 10.0 mi ESE 6.9 mph - N/A   Clear
2:15 AM 51.8 °F 33.8 °F 50% 30.28 in 10.0 mi ESE 5.8 mph - N/A   Clear
2:35 AM 51.8 °F 33.8 °F 50% 30.28 in 10.0 mi ESE 4.6 mph - N/A   Clear
2:55 AM 51.8 °F 33.8 °F 50% 30.28 in 10.0 mi ESE 3.5 mph - N/A   Clear
3:15 AM 51.8 °F 33.8 °F 50% 30.27 in 10.0 mi ESE 4.6 mph - N/A   Clear
3:35 AM 51.8 °F 33.8 °F 50% 30.27 in 10.0 mi ESE 6.9 mph - N/A   Clear
3:55 AM 50.0 °F 33.8 °F 54% 30.28 in 10.0 mi ESE 4.6 mph - N/A   Clear
4:15 AM 48.2 °F 35.6 °F 62% 30.29 in 10.0 mi ESE 5.8 mph - N/A   Clear
4:35 AM 50.0 °F 37.4 °F 62% 30.29 in 10.0 mi ESE 6.9 mph - N/A   Clear
4:55 AM 50.0 °F 39.2 °F 66% 30.29 in 10.0 mi ESE 6.9 mph - N/A   Clear
5:35 AM 50.0 °F 42.8 °F 76% 30.31 in 10.0 mi ESE 4.6 mph - N/A   Clear
5:55 AM 50.0 °F 42.8 °F 76% 30.32 in 10.0 mi ESE 5.8 mph - N/A   Clear
6:15 AM 50.0 °F 44.6 °F 82% 30.33 in 10.0 mi ESE 3.5 mph - N/A   Clear
6:35 AM 50.0 °F 44.6 °F 82% 30.34 in 10.0 mi ESE 5.8 mph - N/A   Clear
6:55 AM 51.8 °F 44.6 °F 76% 30.34 in 10.0 mi ESE 6.9 mph - N/A   Clear
7:35 AM 55.4 °F 46.4 °F 72% 30.35 in 10.0 mi SE 10.4 mph - N/A   Clear
8:15 AM 57.2 °F 46.4 °F 67% 30.35 in 10.0 mi SE 9.2 mph 16.1 mph N/A   Clear
8:35 AM 59.0 °F 46.4 °F 63% 30.36 in 10.0 mi SE 6.9 mph - N/A   Clear
8:55 AM 60.8 °F 48.2 °F 63% 30.37 in 10.0 mi SE 6.9 mph - N/A   Clear
9:15 AM 62.6 °F 48.2 °F 59% 30.37 in 10.0 mi ESE 6.9 mph - N/A   Clear
9:35 AM 64.4 °F 48.2 °F 56% 30.37 in 10.0 mi SE 8.1 mph - N/A   Clear
9:55 AM 66.2 °F 48.2 °F 52% 30.37 in 10.0 mi SE 8.1 mph - N/A   Clear
10:15 AM 68.0 °F 48.2 °F 49% 30.37 in 10.0 mi SSE 12.7 mph - N/A   Mostly Cloudy
10:35 AM 69.8 °F 46.4 °F 43% 30.36 in 10.0 mi SSE 12.7 mph 17.3 mph N/A   Overcast
10:55 AM 68.0 °F 46.4 °F 46% 30.34 in 10.0 mi SSE 13.8 mph 21.9 mph N/A   Overcast
11:15 AM 69.8 °F 46.4 °F 43% 30.33 in 10.0 mi SE 13.8 mph 23.0 mph N/A   Overcast
11:35 AM 69.8 °F 46.4 °F 43% 30.32 in 10.0 mi SE 11.5 mph 19.6 mph N/A   Mostly Cloudy
12:15 PM 71.6 °F 48.2 °F 43% 30.29 in 10.0 mi SSE 8.1 mph 17.3 mph N/A   Mostly Cloudy
12:35 PM 69.8 °F 46.4 °F 43% 30.29 in 10.0 mi SSE 12.7 mph 18.4 mph N/A   Overcast
12:55 PM 71.6 °F 46.4 °F 41% 30.28 in 10.0 mi ESE 10.4 mph 18.4 mph N/A   Mostly Cloudy
1:15 PM 69.8 °F 46.4 °F 43% 30.27 in 10.0 mi SE 12.7 mph 16.1 mph N/A   Overcast
1:35 PM 71.6 °F 46.4 °F 41% 30.27 in 10.0 mi SSE 11.5 mph 19.6 mph N/A   Mostly Cloudy
1:55 PM 71.6 °F 46.4 °F 41% 30.27 in 10.0 mi SE 13.8 mph 18.4 mph N/A   Scattered Clouds
2:15 PM 73.4 °F 46.4 °F 38% 30.26 in 10.0 mi SSE 13.8 mph 19.6 mph N/A   Mostly Cloudy
2:35 PM 71.6 °F 46.4 °F 41% 30.26 in 10.0 mi SSE 10.4 mph 19.6 mph N/A   Mostly Cloudy
2:55 PM 73.4 °F 48.2 °F 41% 30.26 in 10.0 mi SSE 9.2 mph - N/A   Mostly Cloudy
3:15 PM 71.6 °F 46.4 °F 41% 30.26 in 10.0 mi SSE 11.5 mph 17.3 mph N/A   Mostly Cloudy
3:35 PM 71.6 °F 46.4 °F 41% 30.26 in 10.0 mi SSE 11.5 mph 17.3 mph N/A   Partly Cloudy
3:55 PM 71.6 °F 46.4 °F 41% 30.25 in 10.0 mi SSE 11.5 mph - N/A   Partly Cloudy
4:15 PM 71.6 °F 46.4 °F 41% 30.25 in 10.0 mi SSE 9.2 mph - N/A   Scattered Clouds
4:35 PM 69.8 °F 46.4 °F 43% 30.25 in 10.0 mi SSE 5.8 mph - N/A   Mostly Cloudy
4:55 PM 69.8 °F 46.4 °F 43% 30.25 in 10.0 mi SSE 4.6 mph - N/A   Overcast
5:15 PM 68.0 °F 46.4 °F 46% 30.25 in 10.0 mi SE 3.5 mph - N/A   Overcast
5:35 PM 68.0 °F 46.4 °F 46% 30.26 in 10.0 mi Calm Calm - N/A   Overcast
5:55 PM 66.2 °F 46.4 °F 49% 30.26 in 10.0 mi ESE 3.5 mph - N/A   Overcast
6:15 PM 66.2 °F 46.4 °F 49% 30.26 in 10.0 mi ESE 4.6 mph - N/A   Overcast
6:35 PM 66.2 °F 46.4 °F 49% 30.26 in 10.0 mi ESE 4.6 mph - N/A   Overcast
6:55 PM 66.2 °F 46.4 °F 49% 30.26 in 10.0 mi SE 4.6 mph - N/A   Overcast
7:15 PM 66.2 °F 46.4 °F 49% 30.26 in 10.0 mi ESE 5.8 mph - N/A   Scattered Clouds
7:35 PM 64.4 °F 48.2 °F 56% 30.26 in 10.0 mi ESE 6.9 mph - N/A   Clear
7:55 PM 64.4 °F 48.2 °F 56% 30.26 in 10.0 mi ESE 6.9 mph - N/A   Clear
8:15 PM 64.4 °F 48.2 °F 56% 30.27 in 10.0 mi ESE 5.8 mph - N/A   Clear
8:35 PM - - N/A% 30.26 in 10.0 mi ESE 6.9 mph - N/A   Clear
8:55 PM 62.6 °F 48.2 °F 59% 30.26 in 10.0 mi SE 6.9 mph - N/A   Partly Cloudy
9:15 PM 64.4 °F 48.2 °F 56% 30.26 in 10.0 mi SE 5.8 mph - N/A   Mostly Cloudy
9:35 PM 62.6 °F 48.2 °F 59% 30.26 in 10.0 mi SE 5.8 mph - N/A   Mostly Cloudy
10:15 PM 62.6 °F 48.2 °F 59% 30.27 in 10.0 mi SE 4.6 mph - N/A   Partly Cloudy
10:35 PM 62.6 °F 48.2 °F 59% 30.27 in 10.0 mi SE 8.1 mph - N/A   Partly Cloudy
10:55 PM 62.6 °F 50.0 °F 63% 30.26 in 10.0 mi SE 6.9 mph - N/A   Partly Cloudy
11:15 PM 62.6 °F 50.0 °F 63% 30.26 in 10.0 mi SE 6.9 mph - N/A   Clear
11:35 PM 62.6 °F 51.8 °F 68% 30.26 in 10.0 mi SE 8.1 mph - N/A   Partly Cloudy
11:55 PM 60.8 °F 51.8 °F 72% 30.25 in 10.0 mi SE 10.4 mph - N/A   Partly Cloudy